EW6030 Weather Reports


Display with metric or nautical units.
time (UTC)temp
F
wind
direction
speed
MPH
gust
MPH
rain 1hr
in
rain 24hr
in
rain mn
in
humidity
%
barometer
mb
20260504190053 77 71 8.0 0.0 0.00 0.00 0.00 33 993.7
20260504184557 77 87 6.0 0.0 0.00 0.00 0.00 32 993.8
20260504183048 77 74 6.0 0.0 0.00 0.00 0.00 33 994.0
20260504181552 76 56 7.0 0.0 0.00 0.00 0.00 32 994.1
20260504180047 76 62 6.0 0.0 0.00 0.00 0.00 33 994.0
20260504174548 76 82 6.0 0.0 0.00 0.00 0.00 31 994.0
20260504173045 76 98 5.0 0.0 0.00 0.00 0.00 32 994.0
20260504171545 76 56 5.0 0.0 0.00 0.00 0.00 31 994.1
20260504081536 49 62 0.0 0.0 0.00 0.00 0.00 70 999.5
20260504044551 55 62 0.0 0.0 0.00 0.00 0.00 62 1001.1
20260504043057 55 62 0.0 0.0 0.00 0.00 0.00 61 1001.3
20260504041546 55 62 0.0 0.0 0.00 0.00 0.00 61 1001.3
20260504040043 56 62 0.0 0.0 0.00 0.00 0.00 57 1001.4
20260504034542 57 62 0.0 0.0 0.00 0.00 0.00 55 1001.4
20260504033041 58 62 0.0 0.0 0.00 0.00 0.00 55 1001.5
20260504031541 58 62 0.0 0.0 0.00 0.00 0.00 53 1001.5
20260504030040 58 62 0.0 0.0 0.00 0.00 0.00 53 1001.4
20260504024543 58 62 0.0 0.0 0.00 0.00 0.00 55 1001.3
20260504023040 58 62 0.0 0.0 0.00 0.00 0.00 55 1001.3
20260504021539 59 62 0.0 0.0 0.00 0.00 0.00 58 1001.3
20260504020104 61 62 0.0 0.0 0.00 0.00 0.00 54 1001.0
20260504014554 61 62 0.0 0.0 0.00 0.00 0.00 50 1000.8
20260504013045 63 62 0.0 0.0 0.00 0.00 0.00 51 1000.7
20260504011537 64 62 0.0 0.0 0.00 0.00 0.00 45 1000.6
20260504010042 66 62 0.0 0.0 0.00 0.00 0.00 44 1000.6
20260504004548 68 62 0.0 0.0 0.00 0.00 0.00 40 1000.6
20260504003037 69 62 0.0 0.0 0.00 0.00 0.00 39 1000.6
20260504001550 69 58 0.0 0.0 0.00 0.00 0.00 39 1000.5
20260504000034 69 59 1.0 0.0 0.00 0.00 0.00 39 1000.4
20260503234534 70 58 0.0 0.0 0.00 0.00 0.00 38 1000.3
20260503233038 71 61 1.0 0.0 0.00 0.00 0.00 38 1000.2
20260503231531 70 69 2.0 0.0 0.00 0.00 0.00 39 1000.4
20260503230031 70 61 2.0 0.0 0.00 0.00 0.00 39 1000.5
20260503224528 70 64 2.0 0.0 0.00 0.00 0.00 42 1000.7
20260503223027 70 58 3.0 0.0 0.00 0.00 0.00 41 1000.8
20260503221526 70 51 3.0 0.0 0.00 0.00 0.00 41 1000.8
20260503220029 70 65 3.0 0.0 0.00 0.00 0.00 40 1000.9
20260503214524 70 60 2.0 0.0 0.00 0.00 0.00 41 1000.9
20260503213022 70 65 3.0 0.0 0.00 0.00 0.00 42 1000.9
20260503211521 69 43 3.0 0.0 0.00 0.00 0.00 42 1001.1
20260503210020 70 53 3.0 0.0 0.00 0.00 0.00 41 1001.4
20260503204517 69 63 3.0 0.0 0.00 0.00 0.00 43 1001.6
20260503203035 68 64 3.0 0.0 0.00 0.00 0.00 43 1001.7
20260503201511 68 68 4.0 0.0 0.00 0.00 0.00 42 1002.0
20260503200012 68 56 3.0 0.0 0.00 0.00 0.00 43 1002.1
20260503194514 67 66 4.0 0.0 0.00 0.00 0.00 42 1002.3
20260503193005 67 55 5.0 0.0 0.00 0.00 0.00 42 1002.6
20260503191504 66 83 4.0 0.0 0.00 0.00 0.00 43 1002.8